Location: Arbon
(43.0005°N, 0.7472°E)
Time: 15:41:06
(UTC+00:00)

Envisat - Pass Details

Date: 29 October 2020
Orbit: 764 x 766 km, 98.1° (Epoch: 30 November)

Event Time Altitude Azimuth Distance (km) Brightness Sun altitude
Rises 05:44:59 0° 16° (NNE) 3,241 6.3 -8.5°
Reaches altitude 10° 05:47:19 10° 19° (NNE) 2,311 5.6 -8.1°
Maximum altitude 05:52:23 64° 101° (E) 844 3.6 -7.1°
Drops below altitude 10° 05:57:24 10° 183° (S) 2,293 5.6 -6.3°
Sets 05:59:42 0° 187° (S) 3,214 6.3 -5.8°
